sat.trackr.live / text

‹ back to catalog

NINGXIA-1 5

NORAD 44783 · 2019-076E

PAYLOAD ACTIVE UNKNOWN

§ Identity

Operator
Country
PRC
Launch date
2019-11-13
Launch site
TAISC
Launch vehicle
Mass (kg)
RCS (m²)

External: N2YO · Heavens-Above · Gunter

§ Orbital elements

Epoch: 2026-09-20T04:16:20.756928Z

Period
102.70 min
Inclination
45.0044°
Eccentricity
0.0011068
Mean motion
14.02096285 rev/d
Perigee alt
878.5 km
Apogee alt
894.6 km
Semi-major
7,264.7 km
B*
7.0053e-5
RAAN
114.6588°
Arg perigee
238.5333°
Mean anomaly
121.4419°
Rev number
35,110

§ Raw data

NINGXIA-1 51 44783U 19076E   26263.17801802 -.00000022  00000+0  70053-4 0  99982 44783  45.0044 114.6588 0011068 238.5333 121.4419 14.02096285351100

JSON: /api/v1/satellites/44783 · /tle

For live sub-satellite position, see the globe view (requires WebGL).

§ Visibility from observer

Set your observer location to see the next 7 days of passes ≥ 10°. The values pass through the URL so the page stays shareable.

No JS? Fill the form by hand. The geolocation button needs JavaScript.

§ Radio — SatNOGS DB

ModeDescriptionDownlinkUplink
FM Mode S 2.271 GHz

1 transmitter · refreshed weekly from db.satnogs.org